Wetterdaten: Woche 22.01.18 - 28.01.18 (KW4)
Datum Zeit Temp. A. Pool Temp. Feuchte A. Luftdruck Regen Wind Richtung Sonnenschein ET UV Solar Taupunkt Windchill Windben Empfang
22.01.2018 00:00 0,0 C 3,3 C 94 % 1018,4 hPa 0,0 l/m 6,1 km/h (2 Bft) W-SW 0,00 h 0,000 mm 0,0 UV-I 0 W/m -0,8 C -0,5 C 9,4 km/h (2 Bft) 98,46 %
22.01.2018 01:00 -0,5 C 3,3 C 95 % 1017,7 hPa 0,0 l/m 2,2 km/h (1 Bft) W 0,00 h 0,000 mm 0,0 UV-I 0 W/m -1,2 C -0,5 C 3,6 km/h (1 Bft) 97,71 %
22.01.2018 02:00 -1,4 C 3,3 C 97 % 1016,9 hPa 0,0 l/m 2,0 km/h (1 Bft) O-SO 0,00 h 0,000 mm 0,0 UV-I 0 W/m -1,9 C -1,4 C 3,1 km/h (1 Bft) 97,78 %
22.01.2018 03:00 -1,7 C 3,3 C 97 % 1016,2 hPa 0,0 l/m 4,7 km/h (1 Bft) O-SO 0,00 h 0,000 mm 0,0 UV-I 0 W/m -2,1 C -1,8 C 7,6 km/h (2 Bft) 98,41 %
22.01.2018 04:00 -1,3 C 3,3 C 97 % 1015,7 hPa 0,0 l/m 5,3 km/h (1 Bft) O-NO 0,00 h 0,000 mm 0,0 UV-I 0 W/m -1,8 C -1,5 C 8,1 km/h (2 Bft) 99,39 %
22.01.2018 05:00 -1,3 C 3,3 C 96 % 1015,1 hPa 0,0 l/m 7,3 km/h (2 Bft) O-NO 0,00 h 0,000 mm 0,0 UV-I 0 W/m -1,8 C -2,5 C 11,3 km/h (2 Bft) 95,75 %
22.01.2018 06:00 -1,2 C 3,3 C 96 % 1014,7 hPa 0,0 l/m 5,3 km/h (1 Bft) O-NO 0,00 h 0,000 mm 0,0 UV-I 0 W/m -1,7 C -1,7 C 8,7 km/h (2 Bft) 98,65 %
22.01.2018 07:00 -1,2 C 3,3 C 96 % 1014,5 hPa 0,0 l/m 1,5 km/h (1 Bft) S-SW 0,00 h 0,000 mm 0,0 UV-I 6 W/m -1,8 C -1,2 C 3,3 km/h (1 Bft) 98,29 %
22.01.2018 08:00 -1,2 C 3,3 C 96 % 1014,0 hPa 0,0 l/m 3,5 km/h (1 Bft) NO 0,00 h 0,000 mm 0,0 UV-I 27 W/m -1,7 C -1,2 C 5,0 km/h (1 Bft) 99,09 %
22.01.2018 09:00 -0,9 C 3,3 C 96 % 1013,3 hPa 0,0 l/m 7,7 km/h (2 Bft) O-NO 0,00 h 0,000 mm 0,0 UV-I 67 W/m -1,5 C -2,5 C 11,2 km/h (2 Bft) 95,71 %
22.01.2018 10:00 -0,9 C 3,3 C 95 % 1013,1 hPa 0,0 l/m 9,5 km/h (2 Bft) O-NO 0,00 h 0,025 mm 0,0 UV-I 72 W/m -1,6 C -3,9 C 13,5 km/h (3 Bft) 98,81 %
22.01.2018 11:00 -1,0 C 3,3 C 94 % 1012,8 hPa 0,0 l/m 8,0 km/h (2 Bft) O-NO 0,00 h 0,026 mm 0,0 UV-I 119 W/m -1,8 C -2,7 C 11,7 km/h (2 Bft) 97,91 %
22.01.2018 12:00 -1,2 C 3,3 C 95 % 1012,1 hPa 0,4 l/m 10,2 km/h (2 Bft) O-NO 0,00 h 0,051 mm 0,4 UV-I 149 W/m -1,9 C -4,8 C 14,4 km/h (3 Bft) 99,08 %
22.01.2018 13:00 -1,3 C 3,3 C 95 % 1011,3 hPa 0,2 l/m 9,2 km/h (2 Bft) O-NO 0,00 h 0,050 mm 0,0 UV-I 85 W/m -2,0 C -4,1 C 13,6 km/h (3 Bft) 95,54 %
22.01.2018 14:00 -1,1 C 3,3 C 96 % 1010,8 hPa 0,0 l/m 8,6 km/h (2 Bft) O-NO 0,00 h 0,026 mm 0,0 UV-I 84 W/m -1,7 C -3,3 C 12,6 km/h (3 Bft) 98,74 %
22.01.2018 15:00 -1,0 C 3,3 C 96 % 1010,9 hPa 0,0 l/m 7,9 km/h (2 Bft) O-NO 0,00 h 0,025 mm 0,0 UV-I 38 W/m -1,5 C -2,7 C 11,7 km/h (2 Bft) 97,60 %
22.01.2018 16:00 -0,9 C 3,3 C 97 % 1011,1 hPa 0,0 l/m 2,4 km/h (1 Bft) NO 0,00 h 0,026 mm 0,0 UV-I 10 W/m -1,3 C -1,5 C 3,7 km/h (1 Bft) 99,24 %
22.01.2018 17:00 -0,9 C 3,3 C 97 % 1011,6 hPa 0,0 l/m 0,0 km/h (0 Bft) N 0,00 h 0,000 mm 0,0 UV-I 0 W/m -1,3 C -0,9 C 0,0 km/h (0 Bft) 96,70 %
22.01.2018 18:00 -0,7 C 3,3 C 97 % 1012,0 hPa 0,0 l/m 0,0 km/h (0 Bft) N 0,00 h 0,000 mm 0,0 UV-I 0 W/m -1,2 C -0,7 C 0,0 km/h (0 Bft) 97,87 %
22.01.2018 19:00 -0,6 C 3,3 C 97 % 1012,4 hPa 0,0 l/m 0,0 km/h (0 Bft) N 0,00 h 0,000 mm 0,0 UV-I 0 W/m -1,0 C -0,6 C 0,0 km/h (0 Bft) 98,08 %
22.01.2018 20:00 -0,6 C 3,3 C 97 % 1012,8 hPa 0,0 l/m 0,0 km/h (0 Bft) N 0,00 h 0,000 mm 0,0 UV-I 0 W/m -0,9 C -0,6 C 0,0 km/h (0 Bft) 99,24 %
22.01.2018 21:00 -0,4 C 3,3 C 97 % 1013,5 hPa 0,0 l/m 0,0 km/h (0 Bft) N 0,00 h 0,000 mm 0,0 UV-I 0 W/m -0,8 C -0,4 C 0,0 km/h (0 Bft) 97,28 %
22.01.2018 22:00 -0,3 C 3,3 C 98 % 1014,1 hPa 0,0 l/m 0,0 km/h (0 Bft) N 0,00 h 0,000 mm 0,0 UV-I 0 W/m -0,7 C -0,3 C 0,0 km/h (0 Bft) 97,41 %
22.01.2018 23:00 -0,2 C 3,3 C 98 % 1015,3 hPa 0,0 l/m 0,0 km/h (0 Bft) N 0,00 h 0,000 mm 0,0 UV-I 0 W/m -0,5 C -0,2 C 0,0 km/h (0 Bft) 97,63 %
23.01.2018 00:00 0,2 C 3,3 C 98 % 1016,8 hPa 0,0 l/m 0,0 km/h (0 Bft) N 0,00 h 0,000 mm 0,0 UV-I 0 W/m -0,1 C 0,2 C 0,0 km/h (0 Bft) 95,40 %
23.01.2018 01:00 1,3 C 3,3 C 98 % 1018,0 hPa 0,0 l/m 5,0 km/h (1 Bft) W 0,00 h 0,000 mm 0,0 UV-I 0 W/m 0,9 C 0,1 C 7,8 km/h (2 Bft) 97,59 %
23.01.2018 02:00 1,7 C 3,3 C 97 % 1019,2 hPa 0,0 l/m 8,6 km/h (2 Bft) W-SW 0,00 h 0,000 mm 0,0 UV-I 0 W/m 1,3 C -0,3 C 13,1 km/h (3 Bft) 97,26 %
23.01.2018 03:00 1,8 C 3,3 C 97 % 1019,9 hPa 0,0 l/m 8,7 km/h (2 Bft) W-SW 0,00 h 0,000 mm 0,0 UV-I 0 W/m 1,4 C -0,4 C 13,4 km/h (3 Bft) 97,56 %
23.01.2018 04:00 2,3 C 3,3 C 96 % 1020,5 hPa 0,0 l/m 9,9 km/h (2 Bft) W-SW 0,00 h 0,000 mm 0,0 UV-I 0 W/m 1,8 C -0,8 C 14,6 km/h (3 Bft) 98,94 %
23.01.2018 05:00 2,6 C 3,3 C 96 % 1021,2 hPa 4,0 l/m 9,9 km/h (2 Bft) SW 0,00 h 0,000 mm 0,0 UV-I 0 W/m 2,0 C -0,4 C 14,8 km/h (3 Bft) 97,96 %
23.01.2018 06:00 2,8 C 3,3 C 94 % 1022,1 hPa 2,4 l/m 9,2 km/h (2 Bft) W-SW 0,00 h 0,000 mm 0,0 UV-I 0 W/m 2,0 C 0,4 C 14,1 km/h (3 Bft) 99,25 %
23.01.2018 07:00 2,7 C 3,3 C 93 % 1023,2 hPa 0,8 l/m 13,4 km/h (3 Bft) SW 0,00 h 0,000 mm 0,0 UV-I 5 W/m 1,8 C -2,7 C 19,2 km/h (3 Bft) 97,15 %
23.01.2018 08:00 2,7 C 3,3 C 94 % 1024,6 hPa 1,0 l/m 10,4 km/h (2 Bft) SW 0,00 h 0,000 mm 0,0 UV-I 13 W/m 1,8 C -0,6 C 15,1 km/h (3 Bft) 96,39 %
23.01.2018 09:00 2,6 C 3,3 C 95 % 1025,5 hPa 1,2 l/m 10,4 km/h (2 Bft) SW 0,00 h 0,000 mm 0,0 UV-I 40 W/m 1,8 C -0,8 C 15,9 km/h (3 Bft) 97,95 %
23.01.2018 10:00 2,7 C 3,3 C 95 % 1026,2 hPa 1,4 l/m 12,1 km/h (2 Bft) SW 0,00 h 0,025 mm 0,5 UV-I 87 W/m 2,0 C -2,0 C 17,4 km/h (3 Bft) 98,57 %
23.01.2018 11:00 3,2 C 3,3 C 94 % 1026,6 hPa 1,4 l/m 11,5 km/h (2 Bft) SW 0,00 h 0,026 mm 0,5 UV-I 89 W/m 2,3 C -0,9 C 16,9 km/h (3 Bft) 99,03 %
23.01.2018 12:00 3,4 C 3,3 C 94 % 1027,0 hPa 1,2 l/m 11,2 km/h (2 Bft) W-SW 0,00 h 0,051 mm 0,4 UV-I 82 W/m 2,5 C -0,6 C 16,8 km/h (3 Bft) 97,77 %
23.01.2018 13:00 3,8 C 3,3 C 92 % 1027,0 hPa 1,2 l/m 9,5 km/h (2 Bft) SW 0,00 h 0,025 mm 0,0 UV-I 118 W/m 2,7 C 1,2 C 14,8 km/h (3 Bft) 96,45 %
23.01.2018 14:00 4,0 C 3,3 C 91 % 1027,0 hPa 0,4 l/m 9,9 km/h (2 Bft) SW 0,00 h 0,051 mm 0,0 UV-I 102 W/m 2,7 C 1,2 C 15,2 km/h (3 Bft) 97,27 %
23.01.2018 15:00 4,2 C 3,3 C 90 % 1027,3 hPa 0,2 l/m 8,8 km/h (2 Bft) SW 0,00 h 0,051 mm 0,0 UV-I 43 W/m 2,8 C 2,1 C 14,6 km/h (3 Bft) 99,49 %
23.01.2018 16:00 4,0 C 3,3 C 90 % 1027,6 hPa 0,2 l/m 8,1 km/h (2 Bft) SW 0,00 h 0,025 mm 0,0 UV-I 15 W/m 2,5 C 2,5 C 12,1 km/h (2 Bft) 98,00 %
23.01.2018 17:00 3,8 C 3,3 C 91 % 1027,8 hPa 0,0 l/m 5,9 km/h (2 Bft) SW 0,00 h 0,000 mm 0,0 UV-I 0 W/m 2,4 C 3,7 C 8,2 km/h (2 Bft) 98,43 %
23.01.2018 18:00 3,6 C 3,3 C 91 % 1028,0 hPa 0,0 l/m 5,8 km/h (1 Bft) SW 0,00 h 0,000 mm 0,0 UV-I 0 W/m 2,2 C 3,4 C 8,2 km/h (2 Bft) 95,14 %
23.01.2018 19:00 3,1 C 3,3 C 92 % 1028,1 hPa 0,0 l/m 3,6 km/h (1 Bft) SW 0,00 h 0,000 mm 0,0 UV-I 0 W/m 1,9 C 3,1 C 5,6 km/h (1 Bft) 99,53 %
23.01.2018 20:00 2,8 C 3,3 C 93 % 1028,1 hPa 0,0 l/m 2,6 km/h (1 Bft) S-SW 0,00 h 0,000 mm 0,0 UV-I 0 W/m 1,9 C 2,8 C 4,6 km/h (1 Bft) 98,06 %
23.01.2018 21:00 2,5 C 3,4 C 94 % 1028,0 hPa 0,0 l/m 1,1 km/h (0 Bft) S-SW 0,00 h 0,000 mm 0,0 UV-I 0 W/m 1,6 C 2,5 C 2,5 km/h (1 Bft) 99,16 %
23.01.2018 22:00 2,3 C 3,3 C 95 % 1027,8 hPa 0,0 l/m 1,0 km/h (0 Bft) S 0,00 h 0,000 mm 0,0 UV-I 0 W/m 1,6 C 2,3 C 2,2 km/h (1 Bft) 97,20 %
23.01.2018 23:00 1,9 C 3,4 C 97 % 1027,7 hPa 0,0 l/m 0,4 km/h (0 Bft) S 0,00 h 0,000 mm 0,0 UV-I 0 W/m 1,4 C 1,9 C 1,8 km/h (1 Bft) 96,90 %
24.01.2018 00:00 2,2 C 3,4 C 95 % 1027,6 hPa 0,0 l/m 2,8 km/h (1 Bft) SW 0,00 h 0,000 mm 0,0 UV-I 0 W/m 1,4 C 2,2 C 5,1 km/h (1 Bft) 99,41 %
24.01.2018 01:00 2,4 C 3,5 C 93 % 1027,6 hPa 0,0 l/m 6,9 km/h (2 Bft) SW 0,00 h 0,000 mm 0,0 UV-I 0 W/m 1,4 C 1,6 C 10,4 km/h (2 Bft) 97,18 %
24.01.2018 02:00 2,4 C 3,3 C 92 % 1027,9 hPa 0,0 l/m 8,5 km/h (2 Bft) S-SW 0,00 h 0,000 mm 0,0 UV-I 0 W/m 1,2 C 0,4 C 13,8 km/h (3 Bft) 98,72 %
24.01.2018 03:00 2,0 C 3,4 C 92 % 1027,7 hPa 0,0 l/m 7,4 km/h (2 Bft) S-SW 0,00 h 0,000 mm 0,0 UV-I 0 W/m 0,8 C 0,8 C 12,3 km/h (3 Bft) 95,30 %
24.01.2018 04:00 1,9 C 3,4 C 92 % 1027,5 hPa 0,0 l/m 7,1 km/h (2 Bft) S-SW 0,00 h 0,000 mm 0,0 UV-I 0 W/m 0,7 C 0,8 C 10,2 km/h (2 Bft) 99,28 %
24.01.2018 05:00 2,2 C 3,3 C 91 % 1027,4 hPa 0,0 l/m 5,4 km/h (1 Bft) SW 0,00 h 0,000 mm 0,0 UV-I 0 W/m 1,0 C 2,2 C 8,6 km/h (2 Bft) 98,10 %
24.01.2018 06:00 2,1 C 3,3 C 92 % 1027,4 hPa 0,0 l/m 3,7 km/h (1 Bft) S-SW 0,00 h 0,000 mm 0,0 UV-I 0 W/m 1,0 C 2,1 C 5,8 km/h (1 Bft) 99,33 %
24.01.2018 07:00 2,5 C 3,3 C 91 % 1027,5 hPa 0,0 l/m 3,5 km/h (1 Bft) S-SW 0,03 h 0,000 mm 0,0 UV-I 7 W/m 1,2 C 2,5 C 5,7 km/h (1 Bft) 96,84 %
24.01.2018 08:00 2,8 C 3,3 C 91 % 1027,7 hPa 0,0 l/m 2,4 km/h (1 Bft) W-SW 0,00 h 0,000 mm 0,0 UV-I 20 W/m 1,5 C 2,8 C 3,8 km/h (1 Bft) 97,24 %
24.01.2018 09:00 3,4 C 3,3 C 90 % 1027,8 hPa 0,0 l/m 2,2 km/h (1 Bft) S-SW 0,00 h 0,000 mm 0,0 UV-I 76 W/m 1,9 C 3,4 C 3,9 km/h (1 Bft) 98,89 %
24.01.2018 10:00 4,1 C 3,4 C 89 % 1028,0 hPa 0,0 l/m 3,5 km/h (1 Bft) O-NO 0,00 h 0,025 mm 0,0 UV-I 123 W/m 2,5 C 4,1 C 5,5 km/h (1 Bft) 98,56 %
24.01.2018 11:00 4,9 C 3,5 C 86 % 1027,9 hPa 0,0 l/m 3,8 km/h (1 Bft) O-NO 0,17 h 0,051 mm 0,5 UV-I 166 W/m 2,7 C 4,9 C 5,9 km/h (2 Bft) 98,86 %
24.01.2018 12:00 5,9 C 3,9 C 85 % 1027,2 hPa 0,0 l/m 5,4 km/h (1 Bft) O-NO 0,27 h 0,076 mm 0,7 UV-I 229 W/m 3,5 C 5,7 C 8,0 km/h (2 Bft) 98,55 %
24.01.2018 13:00 6,8 C 3,9 C 83 % 1026,1 hPa 0,0 l/m 6,9 km/h (2 Bft) O-NO 1,00 h 0,102 mm 0,7 UV-I 335 W/m 4,2 C 6,3 C 10,3 km/h (2 Bft) 98,63 %
24.01.2018 14:00 7,5 C 3,9 C 81 % 1025,2 hPa 0,0 l/m 5,6 km/h (1 Bft) O-NO 1,00 h 0,152 mm 0,5 UV-I 242 W/m 4,4 C 7,4 C 8,6 km/h (2 Bft) 99,46 %
24.01.2018 15:00 7,4 C 3,9 C 81 % 1024,7 hPa 0,0 l/m 6,1 km/h (2 Bft) O-NO 1,00 h 0,102 mm 0,0 UV-I 143 W/m 4,3 C 7,3 C 8,5 km/h (2 Bft) 97,05 %
24.01.2018 16:00 6,5 C 3,9 C 85 % 1024,3 hPa 0,0 l/m 4,4 km/h (1 Bft) NO 0,67 h 0,076 mm 0,0 UV-I 34 W/m 4,2 C 6,5 C 6,3 km/h (2 Bft) 97,02 %
24.01.2018 17:00 4,6 C 3,9 C 91 % 1023,7 hPa 0,0 l/m 4,3 km/h (1 Bft) O 0,00 h 0,026 mm 0,0 UV-I 5 W/m 3,3 C 4,6 C 6,0 km/h (2 Bft) 99,30 %
24.01.2018 18:00 4,5 C 3,9 C 92 % 1023,1 hPa 0,0 l/m 2,6 km/h (1 Bft) O-NO 0,00 h 0,000 mm 0,0 UV-I 0 W/m 3,2 C 4,5 C 4,1 km/h (1 Bft) 97,71 %
24.01.2018 19:00 3,0 C 3,9 C 95 % 1022,5 hPa 0,0 l/m 0,8 km/h (0 Bft) O-NO 0,00 h 0,000 mm 0,0 UV-I 0 W/m 2,3 C 3,0 C 1,5 km/h (1 Bft) 99,14 %
24.01.2018 20:00 2,7 C 3,9 C 95 % 1021,9 hPa 0,0 l/m 0,0 km/h (0 Bft) N 0,00 h 0,000 mm 0,0 UV-I 0 W/m 2,0 C 2,7 C 0,1 km/h (0 Bft) 95,63 %
24.01.2018 21:00 1,6 C 3,9 C 96 % 1021,5 hPa 0,0 l/m 1,9 km/h (1 Bft) S-SO 0,00 h 0,000 mm 0,0 UV-I 0 W/m 1,1 C 1,6 C 3,4 km/h (1 Bft) 97,30 %
24.01.2018 22:00 1,7 C 3,9 C 97 % 1021,0 hPa 0,0 l/m 0,5 km/h (0 Bft) S-SO 0,00 h 0,000 mm 0,0 UV-I 0 W/m 1,3 C 1,7 C 1,3 km/h (1 Bft) 98,64 %
24.01.2018 23:00 0,8 C 3,9 C 97 % 1020,9 hPa 0,0 l/m 1,4 km/h (1 Bft) O 0,00 h 0,000 mm 0,0 UV-I 0 W/m 0,4 C 0,8 C 2,4 km/h (1 Bft) 98,01 %
25.01.2018 00:00 0,5 C 3,9 C 97 % 1020,7 hPa 0,0 l/m 0,9 km/h (0 Bft) NO 0,00 h 0,000 mm 0,0 UV-I 0 W/m 0,2 C 0,5 C 2,0 km/h (1 Bft) 99,58 %
25.01.2018 01:00 -0,1 C 3,9 C 98 % 1020,8 hPa 0,0 l/m 0,3 km/h (0 Bft) N-NW 0,00 h 0,000 mm 0,0 UV-I 0 W/m -0,4 C -0,1 C 0,5 km/h (0 Bft) 96,30 %
25.01.2018 02:00 -0,5 C 3,9 C 98 % 1021,4 hPa 0,0 l/m 0,9 km/h (0 Bft) W-SW 0,00 h 0,000 mm 0,0 UV-I 0 W/m -0,8 C -0,5 C 2,2 km/h (1 Bft) 98,10 %
25.01.2018 03:00 -0,3 C 3,9 C 98 % 1021,7 hPa 0,0 l/m 4,6 km/h (1 Bft) S-SW 0,00 h 0,000 mm 0,0 UV-I 0 W/m -0,6 C -0,3 C 7,0 km/h (2 Bft) 98,48 %
25.01.2018 04:00 -0,3 C 3,9 C 98 % 1021,7 hPa 0,0 l/m 1,7 km/h (1 Bft) S-SO 0,00 h 0,000 mm 0,0 UV-I 0 W/m -0,6 C -0,3 C 4,2 km/h (1 Bft) 99,11 %
25.01.2018 05:00 -0,8 C 3,9 C 98 % 1021,7 hPa 0,0 l/m 1,7 km/h (1 Bft) NO 0,00 h 0,000 mm 0,0 UV-I 0 W/m -1,1 C -0,8 C 2,6 km/h (1 Bft) 96,71 %
25.01.2018 06:00 -0,9 C 3,9 C 98 % 1021,7 hPa 0,0 l/m 2,3 km/h (1 Bft) N-NO 0,00 h 0,000 mm 0,0 UV-I 0 W/m -1,1 C -0,9 C 4,3 km/h (1 Bft) 97,30 %
25.01.2018 07:00 -0,8 C 3,9 C 98 % 1022,1 hPa 0,0 l/m 1,3 km/h (1 Bft) O-NO 0,03 h 0,000 mm 0,0 UV-I 7 W/m -1,0 C -0,8 C 2,5 km/h (1 Bft) 98,42 %
25.01.2018 08:00 -0,8 C 3,9 C 98 % 1022,2 hPa 0,0 l/m 3,3 km/h (1 Bft) O-NO 0,00 h 0,000 mm 0,0 UV-I 33 W/m -1,0 C -0,8 C 5,4 km/h (1 Bft) 98,46 %
25.01.2018 09:00 -0,5 C 3,9 C 98 % 1022,0 hPa 0,0 l/m 5,3 km/h (1 Bft) O-NO 0,57 h 0,000 mm 0,0 UV-I 138 W/m -0,8 C -0,8 C 8,4 km/h (2 Bft) 97,30 %
25.01.2018 10:00 0,1 C 3,9 C 98 % 1021,6 hPa 0,0 l/m 5,0 km/h (1 Bft) NO 0,00 h 0,051 mm 0,0 UV-I 137 W/m -0,2 C -0,0 C 7,4 km/h (2 Bft) 97,40 %
25.01.2018 11:00 0,7 C 3,9 C 98 % 1020,9 hPa 0,0 l/m 3,3 km/h (1 Bft) O-NO 0,00 h 0,051 mm 0,5 UV-I 177 W/m 0,4 C 0,7 C 5,8 km/h (2 Bft) 98,50 %
25.01.2018 12:00 1,1 C 3,9 C 98 % 1019,9 hPa 0,0 l/m 6,0 km/h (2 Bft) O-NO 0,00 h 0,050 mm 0,5 UV-I 172 W/m 0,8 C 0,8 C 9,6 km/h (2 Bft) 98,26 %
25.01.2018 13:00 1,4 C 3,9 C 98 % 1019,0 hPa 0,0 l/m 6,1 km/h (2 Bft) O-NO 0,07 h 0,051 mm 0,5 UV-I 159 W/m 1,2 C 0,9 C 9,4 km/h (2 Bft) 98,85 %
25.01.2018 14:00 1,5 C 3,9 C 98 % 1018,4 hPa 0,0 l/m 6,8 km/h (2 Bft) O-NO 0,00 h 0,051 mm 0,0 UV-I 99 W/m 1,3 C 0,4 C 10,4 km/h (2 Bft) 96,37 %
25.01.2018 15:00 1,3 C 3,9 C 99 % 1018,2 hPa 0,0 l/m 6,4 km/h (2 Bft) O-NO 0,00 h 0,025 mm 0,0 UV-I 47 W/m 1,1 C 0,4 C 10,0 km/h (2 Bft) 98,24 %
25.01.2018 16:00 1,3 C 3,9 C 98 % 1018,1 hPa 0,0 l/m 7,3 km/h (2 Bft) O-NO 0,00 h 0,026 mm 0,0 UV-I 14 W/m 1,1 C 0,2 C 11,1 km/h (2 Bft) 98,53 %
25.01.2018 17:00 1,4 C 3,9 C 98 % 1017,9 hPa 0,0 l/m 8,0 km/h (2 Bft) O-NO 0,00 h 0,000 mm 0,0 UV-I 0 W/m 1,1 C -0,4 C 12,6 km/h (3 Bft) 99,09 %
25.01.2018 18:00 1,3 C 3,9 C 98 % 1017,9 hPa 0,0 l/m 9,5 km/h (2 Bft) O-NO 0,00 h 0,000 mm 0,0 UV-I 0 W/m 1,1 C -1,6 C 14,7 km/h (3 Bft) 96,40 %
25.01.2018 19:00 1,3 C 3,9 C 99 % 1017,6 hPa 0,0 l/m 3,5 km/h (1 Bft) O 0,00 h 0,000 mm 0,0 UV-I 0 W/m 1,1 C 1,3 C 6,4 km/h (2 Bft) 98,48 %
25.01.2018 20:00 1,0 C 3,9 C 98 % 1017,5 hPa 0,0 l/m 0,2 km/h (0 Bft) NO 0,00 h 0,000 mm 0,0 UV-I 0 W/m 0,7 C 1,0 C 1,1 km/h (1 Bft) 98,10 %
25.01.2018 21:00 0,8 C 3,9 C 98 % 1017,5 hPa 0,0 l/m 0,0 km/h (0 Bft) N 0,00 h 0,000 mm 0,0 UV-I 0 W/m 0,5 C 0,8 C 0,0 km/h (0 Bft) 98,91 %
25.01.2018 22:00 0,9 C 3,9 C 98 % 1017,6 hPa 0,0 l/m 1,0 km/h (0 Bft) N-NO 0,00 h 0,000 mm 0,0 UV-I 0 W/m 0,6 C 0,9 C 3,0 km/h (1 Bft) 96,27 %
25.01.2018 23:00 1,0 C 3,9 C 98 % 1018,0 hPa 0,0 l/m 0,9 km/h (0 Bft) O-NO 0,00 h 0,000 mm 0,0 UV-I 0 W/m 0,8 C 1,0 C 2,5 km/h (1 Bft) 98,12 %
26.01.2018 00:00 1,0 C 3,9 C 98 % 1018,2 hPa 0,0 l/m 0,8 km/h (0 Bft) O-NO 0,00 h 0,000 mm 0,0 UV-I 0 W/m 0,7 C 1,0 C 2,2 km/h (1 Bft) 98,20 %
26.01.2018 01:00 0,9 C 3,9 C 98 % 1018,2 hPa 0,0 l/m 1,8 km/h (1 Bft) O 0,00 h 0,000 mm 0,0 UV-I 0 W/m 0,6 C 0,9 C 4,2 km/h (1 Bft) 99,41 %
26.01.2018 02:00 0,8 C 3,9 C 98 % 1018,3 hPa 0,0 l/m 2,3 km/h (1 Bft) O-NO 0,00 h 0,000 mm 0,0 UV-I 0 W/m 0,5 C 0,8 C 5,3 km/h (1 Bft) 96,20 %
26.01.2018 03:00 0,7 C 3,9 C 98 % 1018,2 hPa 0,0 l/m 1,0 km/h (0 Bft) O-NO 0,00 h 0,000 mm 0,0 UV-I 0 W/m 0,4 C 0,7 C 2,9 km/h (1 Bft) 98,48 %
26.01.2018 04:00 0,7 C 3,9 C 98 % 1018,2 hPa 0,0 l/m 1,9 km/h (1 Bft) SO 0,00 h 0,000 mm 0,0 UV-I 0 W/m 0,5 C 0,7 C 4,3 km/h (1 Bft) 97,97 %
26.01.2018 05:00 0,7 C 3,9 C 98 % 1018,3 hPa 0,0 l/m 2,9 km/h (1 Bft) O 0,00 h 0,000 mm 0,0 UV-I 0 W/m 0,4 C 0,6 C 5,5 km/h (1 Bft) 99,37 %
26.01.2018 06:00 0,6 C 3,9 C 98 % 1018,0 hPa 0,0 l/m 7,3 km/h (2 Bft) O-NO 0,00 h 0,000 mm 0,0 UV-I 0 W/m 0,3 C -1,0 C 11,8 km/h (2 Bft) 96,46 %
26.01.2018 07:00 0,5 C 3,9 C 98 % 1018,0 hPa 0,0 l/m 8,0 km/h (2 Bft) O-NO 0,00 h 0,000 mm 0,0 UV-I 5 W/m 0,3 C -1,1 C 13,3 km/h (3 Bft) 98,27 %
26.01.2018 08:00 0,6 C 3,9 C 98 % 1018,3 hPa 0,0 l/m 7,8 km/h (2 Bft) O-NO 0,00 h 0,000 mm 0,0 UV-I 16 W/m 0,3 C -0,9 C 12,5 km/h (3 Bft) 97,67 %
26.01.2018 09:00 0,4 C 3,9 C 98 % 1018,2 hPa 0,0 l/m 9,1 km/h (2 Bft) O-NO 0,00 h 0,000 mm 0,0 UV-I 36 W/m 0,2 C -2,1 C 14,1 km/h (3 Bft) 99,19 %
26.01.2018 10:00 0,5 C 3,9 C 98 % 1018,2 hPa 0,0 l/m 9,6 km/h (2 Bft) NO 0,00 h 0,025 mm 0,0 UV-I 57 W/m 0,2 C -2,5 C 14,9 km/h (3 Bft) 97,35 %
26.01.2018 11:00 0,5 C 3,9 C 98 % 1018,2 hPa 0,0 l/m 7,3 km/h (2 Bft) NO 0,00 h 0,026 mm 0,0 UV-I 64 W/m 0,3 C -0,8 C 11,4 km/h (2 Bft) 96,99 %
26.01.2018 12:00 0,6 C 3,9 C 98 % 1017,9 hPa 0,0 l/m 9,0 km/h (2 Bft) O-NO 0,00 h 0,025 mm 0,0 UV-I 68 W/m 0,4 C -1,8 C 13,9 km/h (3 Bft) 98,50 %
26.01.2018 13:00 0,8 C 3,9 C 98 % 1017,6 hPa 0,0 l/m 9,5 km/h (2 Bft) O-NO 0,00 h 0,026 mm 0,0 UV-I 62 W/m 0,6 C -2,1 C 14,7 km/h (3 Bft) 99,12 %
26.01.2018 14:00 1,1 C 3,9 C 98 % 1017,7 hPa 0,2 l/m 10,4 km/h (2 Bft) O-NO 0,00 h 0,025 mm 0,0 UV-I 80 W/m 0,8 C -2,4 C 15,4 km/h (3 Bft) 97,79 %
26.01.2018 15:00 1,5 C 3,9 C 96 % 1018,4 hPa 0,0 l/m 4,3 km/h (1 Bft) O-NO 0,00 h 0,025 mm 0,0 UV-I 53 W/m 1,0 C 1,4 C 7,5 km/h (2 Bft) 96,76 %
26.01.2018 16:00 1,5 C 3,9 C 95 % 1019,2 hPa 0,0 l/m 4,1 km/h (1 Bft) O-NO 0,00 h 0,026 mm 0,0 UV-I 12 W/m 0,8 C 1,5 C 7,0 km/h (2 Bft) 98,21 %
26.01.2018 17:00 1,5 C 3,9 C 95 % 1020,0 hPa 0,0 l/m 3,1 km/h (1 Bft) O-NO 0,00 h 0,000 mm 0,0 UV-I 0 W/m 0,7 C 1,5 C 5,1 km/h (1 Bft) 98,36 %
26.01.2018 18:00 1,1 C 3,9 C 95 % 1020,7 hPa 0,0 l/m 7,3 km/h (2 Bft) O-NO 0,00 h 0,000 mm 0,0 UV-I 0 W/m 0,4 C -0,3 C 11,7 km/h (2 Bft) 98,41 %
26.01.2018 19:00 0,6 C 3,9 C 96 % 1021,4 hPa 0,0 l/m 8,9 km/h (2 Bft) O-NO 0,00 h 0,000 mm 0,0 UV-I 0 W/m 0,1 C -1,8 C 13,7 km/h (3 Bft) 96,44 %
26.01.2018 20:00 0,3 C 3,9 C 98 % 1022,0 hPa 0,0 l/m 11,9 km/h (2 Bft) O-NO 0,00 h 0,000 mm 0,0 UV-I 0 W/m -0,0 C -4,4 C 17,0 km/h (3 Bft) 98,77 %
26.01.2018 21:00 0,3 C 3,9 C 98 % 1022,8 hPa 0,0 l/m 6,5 km/h (2 Bft) O-NO 0,00 h 0,000 mm 0,0 UV-I 0 W/m 0,0 C -0,7 C 10,2 km/h (2 Bft) 98,18 %
26.01.2018 22:00 0,3 C 3,9 C 98 % 1023,3 hPa 0,0 l/m 4,4 km/h (1 Bft) O-NO 0,00 h 0,000 mm 0,0 UV-I 0 W/m 0,1 C 0,3 C 7,4 km/h (2 Bft) 99,17 %
26.01.2018 23:00 0,4 C 3,9 C 98 % 1024,0 hPa 0,0 l/m 4,0 km/h (1 Bft) O-NO 0,00 h 0,000 mm 0,0 UV-I 0 W/m 0,1 C 0,4 C 6,5 km/h (2 Bft) 96,16 %
27.01.2018 00:00 0,5 C 3,9 C 98 % 1024,6 hPa 0,0 l/m 4,2 km/h (1 Bft) O-NO 0,00 h 0,000 mm 0,0 UV-I 0 W/m 0,2 C 0,4 C 7,0 km/h (2 Bft) 95,77 %
27.01.2018 01:00 0,5 C 3,9 C 98 % 1025,3 hPa 0,0 l/m 2,4 km/h (1 Bft) O-NO 0,00 h 0,000 mm 0,0 UV-I 0 W/m 0,2 C 0,5 C 4,4 km/h (1 Bft) 98,26 %
27.01.2018 02:00 0,5 C 3,9 C 98 % 1025,8 hPa 0,0 l/m 1,3 km/h (1 Bft) O-NO 0,00 h 0,000 mm 0,0 UV-I 0 W/m 0,2 C 0,5 C 2,9 km/h (1 Bft) 99,59 %
27.01.2018 03:00 0,6 C 3,9 C 98 % 1026,4 hPa 0,0 l/m 0,2 km/h (0 Bft) O-NO 0,00 h 0,000 mm 0,0 UV-I 0 W/m 0,3 C 0,6 C 0,7 km/h (0 Bft) 95,87 %
27.01.2018 04:00 0,7 C 3,9 C 98 % 1026,9 hPa 0,0 l/m 1,1 km/h (0 Bft) O-SO 0,00 h 0,000 mm 0,0 UV-I 0 W/m 0,4 C 0,7 C 2,2 km/h (1 Bft) 98,85 %
27.01.2018 05:00 0,7 C 3,9 C 98 % 1027,5 hPa 0,0 l/m 0,4 km/h (0 Bft) O-SO 0,00 h 0,000 mm 0,0 UV-I 0 W/m 0,5 C 0,7 C 1,6 km/h (1 Bft) 97,86 %
27.01.2018 06:00 0,6 C 3,9 C 99 % 1028,0 hPa 0,0 l/m 0,0 km/h (0 Bft) N 0,00 h 0,000 mm 0,0 UV-I 0 W/m 0,5 C 0,6 C 0,3 km/h (0 Bft) 99,20 %
27.01.2018 07:00 0,7 C 3,9 C 99 % 1028,8 hPa 0,0 l/m 0,4 km/h (0 Bft) S 0,00 h 0,000 mm 0,0 UV-I 5 W/m 0,5 C 0,7 C 1,0 km/h (0 Bft) 95,48 %
27.01.2018 08:00 0,8 C 3,9 C 98 % 1029,8 hPa 0,0 l/m 0,0 km/h (0 Bft) N 0,00 h 0,000 mm 0,0 UV-I 11 W/m 0,6 C 0,8 C 0,3 km/h (0 Bft) 98,71 %
27.01.2018 09:00 1,0 C 3,9 C 99 % 1030,6 hPa 0,0 l/m 0,1 km/h (0 Bft) N 0,00 h 0,000 mm 0,0 UV-I 30 W/m 0,8 C 1,0 C 0,7 km/h (0 Bft) 97,60 %
27.01.2018 10:00 1,2 C 3,9 C 99 % 1031,2 hPa 0,0 l/m 0,0 km/h (0 Bft) N 0,00 h 0,000 mm 0,0 UV-I 46 W/m 1,1 C 1,2 C 0,1 km/h (0 Bft) 99,00 %
27.01.2018 11:00 1,4 C 3,9 C 99 % 1031,7 hPa 0,0 l/m 0,0 km/h (0 Bft) S-SW 0,00 h 0,025 mm 0,0 UV-I 61 W/m 1,3 C 1,4 C 0,1 km/h (0 Bft) 96,41 %
27.01.2018 12:00 1,7 C 3,9 C 99 % 1031,7 hPa 0,0 l/m 0,4 km/h (0 Bft) SW 0,00 h 0,026 mm 0,0 UV-I 73 W/m 1,5 C 1,7 C 1,2 km/h (1 Bft) 98,00 %
27.01.2018 13:00 1,9 C 3,9 C 99 % 1031,6 hPa 0,0 l/m 3,0 km/h (1 Bft) NO 0,00 h 0,025 mm 0,0 UV-I 54 W/m 1,8 C 1,9 C 5,2 km/h (1 Bft) 98,19 %
27.01.2018 14:00 1,9 C 3,9 C 99 % 1031,9 hPa 0,0 l/m 1,1 km/h (1 Bft) NO 0,00 h 0,026 mm 0,0 UV-I 53 W/m 1,8 C 1,9 C 3,2 km/h (1 Bft) 98,59 %
27.01.2018 15:00 1,9 C 3,9 C 99 % 1032,6 hPa 0,0 l/m 0,7 km/h (0 Bft) N-NO 0,00 h 0,025 mm 0,0 UV-I 24 W/m 1,7 C 1,9 C 2,3 km/h (1 Bft) 98,02 %
27.01.2018 16:00 1,8 C 3,9 C 99 % 1032,8 hPa 0,0 l/m 0,2 km/h (0 Bft) N-NO 0,00 h 0,000 mm 0,0 UV-I 9 W/m 1,7 C 1,8 C 0,9 km/h (0 Bft) 96,60 %
27.01.2018 17:00 1,9 C 3,9 C 99 % 1033,4 hPa 0,0 l/m 0,0 km/h (0 Bft) N 0,00 h 0,000 mm 0,0 UV-I 0 W/m 1,8 C 1,9 C 0,3 km/h (0 Bft) 99,06 %
27.01.2018 18:00 2,0 C 3,9 C 99 % 1034,2 hPa 0,0 l/m 0,2 km/h (0 Bft) N-NO 0,00 h 0,000 mm 0,0 UV-I 0 W/m 1,9 C 2,0 C 0,9 km/h (0 Bft) 98,64 %
27.01.2018 19:00 2,1 C 3,9 C 99 % 1034,5 hPa 0,0 l/m 0,7 km/h (0 Bft) NO 0,00 h 0,000 mm 0,0 UV-I 0 W/m 2,0 C 2,1 C 1,9 km/h (1 Bft) 98,29 %
27.01.2018 20:00 2,1 C 3,9 C 99 % 1034,8 hPa 0,0 l/m 0,8 km/h (0 Bft) W-NW 0,00 h 0,000 mm 0,0 UV-I 0 W/m 2,0 C 2,1 C 2,5 km/h (1 Bft) 95,68 %
27.01.2018 21:00 2,0 C 3,9 C 99 % 1035,0 hPa 0,0 l/m 0,9 km/h (0 Bft) W 0,00 h 0,000 mm 0,0 UV-I 0 W/m 1,8 C 2,0 C 2,7 km/h (1 Bft) 99,39 %
27.01.2018 22:00 1,8 C 3,9 C 99 % 1035,1 hPa 0,0 l/m 0,8 km/h (0 Bft) W 0,00 h 0,000 mm 0,0 UV-I 0 W/m 1,7 C 1,8 C 2,2 km/h (1 Bft) 98,55 %
27.01.2018 23:00 1,8 C 3,9 C 99 % 1035,1 hPa 0,0 l/m 0,6 km/h (0 Bft) W 0,00 h 0,000 mm 0,0 UV-I 0 W/m 1,6 C 1,8 C 1,9 km/h (1 Bft) 99,14 %
28.01.2018 00:00 1,6 C 3,9 C 99 % 1034,7 hPa 0,0 l/m 0,2 km/h (0 Bft) W-NW 0,00 h 0,000 mm 0,0 UV-I 0 W/m 1,5 C 1,6 C 1,1 km/h (1 Bft) 95,80 %
28.01.2018 01:00 1,6 C 3,9 C 99 % 1034,6 hPa 0,0 l/m 0,1 km/h (0 Bft) N 0,00 h 0,000 mm 0,0 UV-I 0 W/m 1,5 C 1,6 C 0,5 km/h (0 Bft) 99,45 %
28.01.2018 02:00 1,6 C 3,9 C 99 % 1034,4 hPa 0,0 l/m 0,4 km/h (0 Bft) S-SO 0,00 h 0,000 mm 0,0 UV-I 0 W/m 1,5 C 1,6 C 1,4 km/h (1 Bft) 98,27 %
28.01.2018 03:00 1,6 C 3,9 C 99 % 1034,1 hPa 0,0 l/m 0,0 km/h (0 Bft) N 0,00 h 0,000 mm 0,0 UV-I 0 W/m 1,5 C 1,6 C 0,1 km/h (0 Bft) 99,38 %
28.01.2018 04:00 1,7 C 3,9 C 99 % 1034,0 hPa 0,0 l/m 1,7 km/h (1 Bft) S-SW 0,00 h 0,000 mm 0,0 UV-I 0 W/m 1,5 C 1,7 C 3,5 km/h (1 Bft) 96,15 %
28.01.2018 05:00 1,9 C 3,9 C 99 % 1033,6 hPa 0,0 l/m 4,9 km/h (1 Bft) S-SW 0,00 h 0,000 mm 0,0 UV-I 0 W/m 1,8 C 1,6 C 8,1 km/h (2 Bft) 99,20 %
28.01.2018 06:00 3,2 C 3,9 C 99 % 1033,5 hPa 0,0 l/m 8,9 km/h (2 Bft) SW 0,00 h 0,000 mm 0,0 UV-I 0 W/m 3,0 C 0,8 C 13,6 km/h (3 Bft) 98,07 %
28.01.2018 07:00 4,9 C 3,9 C 91 % 1033,7 hPa 0,2 l/m 11,0 km/h (2 Bft) W-SW 0,07 h 0,000 mm 0,0 UV-I 8 W/m 3,6 C 1,4 C 16,7 km/h (3 Bft) 99,12 %
28.01.2018 08:00 5,2 C 3,9 C 86 % 1034,2 hPa 0,0 l/m 11,0 km/h (2 Bft) W-SW 0,00 h 0,000 mm 0,0 UV-I 50 W/m 3,1 C 1,8 C 16,5 km/h (3 Bft) 97,14 %
28.01.2018 09:00 5,7 C 3,9 C 85 % 1034,3 hPa 0,0 l/m 10,7 km/h (2 Bft) W-SW 0,37 h 0,025 mm 0,0 UV-I 130 W/m 3,4 C 2,5 C 17,0 km/h (3 Bft) 97,05 %
28.01.2018 10:00 7,3 C 3,9 C 79 % 1034,4 hPa 0,0 l/m 15,1 km/h (3 Bft) SW 1,00 h 0,077 mm 0,6 UV-I 307 W/m 3,9 C 1,8 C 23,1 km/h (4 Bft) 97,99 %
28.01.2018 11:00 8,7 C 3,9 C 70 % 1034,1 hPa 0,0 l/m 17,1 km/h (3 Bft) W-SW 1,00 h 0,152 mm 0,9 UV-I 395 W/m 3,6 C 2,8 C 26,0 km/h (4 Bft) 99,59 %
28.01.2018 12:00 9,7 C 3,9 C 64 % 1034,2 hPa 0,0 l/m 13,2 km/h (3 Bft) W-SW 1,00 h 0,229 mm 0,8 UV-I 306 W/m 3,2 C 5,7 C 19,8 km/h (3 Bft) 97,60 %
28.01.2018 13:00 8,9 C 3,9 C 72 % 1034,0 hPa 0,0 l/m 9,9 km/h (2 Bft) W 0,00 h 0,177 mm 0,4 UV-I 139 W/m 4,1 C 6,6 C 17,1 km/h (3 Bft) 99,14 %
28.01.2018 14:00 7,8 C 3,9 C 83 % 1033,8 hPa 0,0 l/m 7,9 km/h (2 Bft) W 0,00 h 0,102 mm 0,0 UV-I 70 W/m 5,1 C 6,5 C 14,3 km/h (3 Bft) 97,35 %
28.01.2018 15:00 7,4 C 3,9 C 88 % 1033,7 hPa 0,0 l/m 6,1 km/h (2 Bft) W 0,00 h 0,051 mm 0,0 UV-I 39 W/m 5,5 C 7,0 C 11,5 km/h (2 Bft) 97,92 %
28.01.2018 16:00 7,4 C 3,9 C 87 % 1033,3 hPa 0,0 l/m 5,2 km/h (1 Bft) W 0,03 h 0,025 mm 0,0 UV-I 13 W/m 5,4 C 7,2 C 8,3 km/h (2 Bft) 96,72 %
28.01.2018 17:00 7,1 C 3,9 C 88 % 1033,4 hPa 0,0 l/m 3,0 km/h (1 Bft) W 0,00 h 0,026 mm 0,0 UV-I 4 W/m 5,3 C 7,1 C 5,1 km/h (1 Bft) 99,65 %
28.01.2018 18:00 7,5 C 3,9 C 87 % 1033,7 hPa 0,0 l/m 5,6 km/h (1 Bft) W 0,00 h 0,000 mm 0,0 UV-I 0 W/m 5,4 C 7,3 C 10,9 km/h (2 Bft) 97,95 %
28.01.2018 19:00 7,6 C 3,9 C 84 % 1033,8 hPa 0,0 l/m 2,9 km/h (1 Bft) S 0,00 h 0,000 mm 0,0 UV-I 0 W/m 5,0 C 7,6 C 5,2 km/h (1 Bft) 99,21 %
28.01.2018 20:00 8,1 C 3,9 C 78 % 1033,7 hPa 0,0 l/m 6,0 km/h (2 Bft) W-SW 0,00 h 0,000 mm 0,0 UV-I 0 W/m 4,4 C 7,2 C 9,4 km/h (2 Bft) 95,90 %
28.01.2018 21:00 9,1 C 3,9 C 75 % 1033,6 hPa 0,0 l/m 13,3 km/h (3 Bft) W-SW 0,00 h 0,025 mm 0,0 UV-I 0 W/m 4,8 C 4,9 C 19,6 km/h (3 Bft) 97,68 %
28.01.2018 22:00 9,3 C 3,9 C 76 % 1033,5 hPa 0,0 l/m 10,6 km/h (2 Bft) W-SW 0,00 h 0,051 mm 0,0 UV-I 0 W/m 5,2 C 6,5 C 16,9 km/h (3 Bft) 98,09 %
28.01.2018 23:00 9,4 C 3,9 C 75 % 1033,4 hPa 0,0 l/m 11,5 km/h (2 Bft) W-SW 0,00 h 0,025 mm 0,0 UV-I 0 W/m 5,2 C 6,2 C 17,8 km/h (3 Bft) 99,72 %
Min-Datum _ 22.01.18 22.01.18 28.01.18 22.01.18 - 22.01.18 - - - - - 22.01.18 22.01.18 22.01.18 27.01.18
_ Min-Zeit 03:06 00:00 12:50 14:26 - 01:34 - - - - - 03:04 13:04 01:34 00:02
Minimum _ -2,3 C 3,3 C 62 % 1010,6 hPa - 0,0 km/h (0 Bft) - - - - - -2,6 C -8,4 C 0,0 km/h (0 Bft) 10,00 %
Max-Datum _ 28.01.18 23.01.18 25.01.18 27.01.18 23.01.18 28.01.18 - 24.01.18 28.01.18 28.01.18 28.01.18 28.01.18 28.01.18 28.01.18 22.01.18
_ Max-Zeit 12:54 18:58 13:28 22:48 05:58 11:48 - 07:54 12:02 11:36 12:06 15:08 22:04 10:06 00:00
Maximum _ 10,1 C 3,9 C 99 % 1035,3 hPa 4,0 l/m 23,0 km/h
W-SW (4 Bft)
- 0,03 h 0,229 mm 1,0 UV-I 497 W/m 5,6 C 9,3 C 35,4 km/h
W-SW (5 Bft)
100,00 %
Durchschnitt _ 2,0 C 3,7 C 94 % 1024,0 hPa #16,4 l/m 4,8 km/h (1 Bft) O-NO #8:16 h #2,668 mm 0,6 UV-I 82 W/m 1,1 C 1,1 C 7,6 km/h (2 Bft) 97,97 %